View from above orbital plane
|
View from above satellite
|
Ground track
|
The orbit data is extracted from the following two-line orbital elements,
1 46084U 20055BK 21058.46600877 .00013473 00000-0 16135-3 0 9995
2 46084 53.0150 17.1802 0011162 242.1204 117.8678 15.61264653 36469
Epoch (UTC): | 27 February 2021 11:11:03 |
Eccentricity: | 0.0011162 |
inclination: | 53.0150° |
perigee height: | 376 km |
apogee height: | 391 km |
right ascension of ascending node: | 17.1802° |
argument of perigee: | 242.1204° |
revolutions per day: | 15.61264653 |
mean anomaly at epoch: | 117.8678° |
orbit number at epoch: | 3646 |
The dashed part of the orbit path shows where the satellite is in the earth's shadow,
|
|